Flag for U.S.A. Weather past 2 weeks in Victorville, California, U.S.A.

Now
95 °F

Scattered clouds.


Feels Like: 91 °F
Forecast: 64 / 97 °F
Wind: No wind

Location: George Air Force Base / Victorvi

Current Time: Jul 29, 2015 at 1:22:36 PM

Latest Report: Jul 29, 2015 at 12:55 PM


Visibility: 10 mi

Pressure: 30.05 "Hg (27.41 "Hg at 830m altitude)

Humidity: 14%

Dew point: 39 °F

Location of VictorvilleLocation

Historic Weather in Victorville — Graph

°F

Victorville temperature yesterday

Maximum temperature yesterday: 99 °F (at 3:15 PM)
Minimum temperature yesterday: 63 °F (at 5:55 AM)
Average temperature yesterday: 82 °F

Past Weeks' High & Low Weather Summary

 TemperatureHumidityPressure
High99 °F (Jul 28, 3:15 PM)100% (Jul 19, 5:35 AM)30.18 "Hg (Jul 19, 5:35 AM)
Low59 °F (Jul 16, 5:55 AM)5% (Jul 28, 4:55 PM)29.85 "Hg (Jul 14, 4:35 PM)
Average77 °F40%29.99 "Hg
* Reported Jul 14 12:15 PM — Jul 29 12:15 PM, Victorville, Weather by CustomWeather, © 2015

Note: Actual official high and low records may vary slightly from our data, if they occured in-between our weather recording intervals... More about our weather records

Advertising

Victorville weather history for previous 24 hours

 ConditionsComfort  
Time TempWeatherWind HumidityBarometerVisibility
12:15 PM
Wed, Jul 29
95 °FSunny.8 mph11%30.05 "Hg10 mi
11:55 AM97 °FSunny.No wind10%30.05 "Hg10 mi
11:35 AM93 °FScattered clouds.No wind10%30.06 "Hg10 mi
11:15 AM93 °FSunny.No wind10%30.06 "Hg10 mi
10:55 AM93 °FSunny.No wind10%30.06 "Hg10 mi
10:35 AM93 °FSunny.No wind11%30.06 "Hg10 mi
10:15 AM91 °FSunny.No wind11%30.05 "Hg10 mi
9:55 AM90 °FSunny.No wind12%30.06 "Hg10 mi
9:35 AM88 °FSunny.No wind13%30.06 "Hg10 mi
9:15 AM84 °FSunny.No wind16%30.05 "Hg10 mi
8:55 AM82 °FSunny.No wind20%30.05 "Hg10 mi
8:35 AM81 °FSunny.No wind20%30.05 "Hg10 mi
8:15 AM79 °FSunny.No wind21%30.04 "Hg10 mi
7:55 AM77 °FSunny.No wind24%30.04 "Hg10 mi
7:35 AM77 °FSunny.No wind26%30.04 "Hg10 mi
7:15 AM75 °FSunny.No wind27%30.03 "Hg10 mi
6:55 AM72 °FClear.No wind31%30.03 "Hg10 mi
6:35 AM72 °FClear.No wind31%30.02 "Hg10 mi
6:15 AM70 °FClear.No wind33%30.02 "Hg10 mi
5:55 AM72 °FClear.No wind31%30.01 "Hg10 mi
5:35 AM68 °FClear.No wind35%30.01 "Hg10 mi
5:15 AM68 °FClear.No wind35%30.01 "Hg10 mi
4:55 AM66 °FClear.No wind43%30.00 "Hg10 mi
4:35 AM68 °FClear.No wind40%30.00 "Hg10 mi
4:15 AM68 °FClear.No wind38%30.00 "Hg10 mi
3:55 AM72 °FClear.No wind31%30.00 "Hg10 mi
3:35 AM72 °FClear.No wind31%30.00 "Hg10 mi
3:15 AM72 °FClear.No wind31%29.99 "Hg10 mi
2:55 AM72 °FClear.No wind33%29.99 "Hg10 mi
2:35 AM70 °FClear.No wind38%29.99 "Hg10 mi
2:15 AM70 °FClear.No wind38%29.99 "Hg10 mi
1:55 AM70 °FClear.No wind38%30.00 "Hg5 mi
1:35 AM72 °FClear.No wind36%30.00 "Hg10 mi
1:15 AM72 °FClear.No wind36%30.00 "Hg10 mi
12:35 AM72 °FClear.No wind33%30.01 "Hg10 mi
12:15 AM73 °FClear.No wind31%30.01 "Hg10 mi
11:55 PM
Tue, Jul 28
73 °FClear.No wind33%30.01 "Hg10 mi
11:35 PM75 °FClear.No wind29%30.00 "Hg10 mi
11:15 PM79 °FClear.No wind23%30.00 "Hg10 mi
10:55 PM79 °FClear.No wind24%29.99 "Hg10 mi
10:35 PM81 °FClear.No wind23%29.99 "Hg10 mi
10:15 PM82 °FClear.No wind19%29.98 "Hg10 mi
9:55 PM79 °FClear.No wind20%29.98 "Hg10 mi
9:35 PM81 °FClear.No wind16%29.97 "Hg10 mi
9:15 PM82 °FClear.No wind14%29.96 "Hg10 mi
8:55 PM82 °FClear.No wind13%29.96 "Hg10 mi
8:15 PM88 °FSunny.6 mph7%29.93 "Hg10 mi
7:55 PM90 °FSunny.10 mph7%29.92 "Hg10 mi
7:35 PM91 °FSunny.14 mph7%29.92 "Hg10 mi
7:15 PM93 °FSunny.16 mph6%29.91 "Hg10 mi
6:55 PM93 °FSunny.16 mph7%29.91 "Hg10 mi
6:35 PM95 °FSunny.16 mph6%29.91 "Hg10 mi
5:55 PM97 °FSunny.18 mph5%29.91 "Hg10 mi
5:35 PM97 °FSunny.16 mph6%29.91 "Hg10 mi
5:15 PM97 °FSunny.15 mph5%29.91 "Hg10 mi
4:55 PM97 °FSunny.14 mph5%29.91 "Hg10 mi
4:35 PM99 °FSunny.17 mph6%29.91 "Hg10 mi
4:15 PM97 °FSunny.12 mph6%29.92 "Hg10 mi
3:55 PM99 °FSunny.17 mph7%29.92 "Hg10 mi
3:15 PM99 °FSunny.7 mph9%29.93 "Hg10 mi
2:55 PM97 °FSunny.9 mph9%29.94 "Hg10 mi
2:15 PM97 °FSunny.No wind9%29.95 "Hg10 mi
1:55 PM97 °FSunny.5 mph9%29.96 "Hg10 mi
1:35 PM95 °FSunny.12 mph9%29.97 "Hg10 mi
1:15 PM93 °FSunny.6 mph12%29.97 "Hg10 mi
Weather by CustomWeather, © 2015

See weather overviewHow to use our weather pages